Fowler, IL

7:56 AM CDT on October 01, 2016 (GMT -0500)
Quincy Regional-Baldwin

Weather History for KUIN - June, 2012

Change the Weather History Date:

Wednesday, June 13, 2012

  Actual Average Record
Temperature  
Mean Temperature 66 °F 72 °F  
Max Temperature 79 °F 81 °F 99 °F (1921)
Min Temperature 53 °F 62 °F 46 °F (1985)
Degree Days  
Heating Degree Days 0 0  
Month to date heating degree days 14  
Since 1 June heating degree days 14  
Since 1 July heating degree days 5580  
Cooling Degree Days 0 7  
Month to date cooling degree days 74  
Year to date cooling degree days 160  
Since 1 June cooling degree days 74  
Growing Degree Days 16 (Base 50)    
Moisture  
Dew Point 49 °F    
Average Humidity 55    
Maximum Humidity 77    
Minimum Humidity 36    
Precipitation  
Precipitation 0.00 in 0.14 in 3.01 in (2011)
Month to date precipitation 1.83  
Year to date precipitation 15.92  
Sea Level Pressure  
Sea Level Pressure 30.09 in    
Wind  
Wind Speed 6 mph (ESE)    
Max Wind Speed 13 mph    
Max Gust Speed -    
Visibility 10 miles    
Events      
T = Trace of Precipitation, MM = Missing Value Source: NWS Daily Summary

Daily Weather History Graph

Daily Weather History Graph

Search for Another Location

Airport or City:

Trip Planner

Search our weather history database for the weather conditions in past years. The results will help you decide how hot, cold, wet, or windy it might be!

Date:

Astronomy

Jun. 13, 2012 Rise Set
Actual Time 5:35 AM CDT 8:34 PM CDT
Civil Twilight 5:02 AM CDT 9:07 PM CDT
Nautical Twilight 4:21 AM CDT 9:48 PM CDT
Astronomical Twilight 3:33 AM CDT 10:37 PM CDT
Moon 1:48 AM CDT (6/13) 3:21 PM CDT (6/13)
Length of Visible Light 16h 04m
Length of Day
14h 59m
Waning Crescent, 29% of the Moon is Illuminated
Jun 13
Waning Crescent
Jun 19
New
Jun 26
First Quarter
Jul 3
Full
Jul 10
Last Quarter

Hourly Weather History & Observations

Time (CDT) Temp. Dew Point Humidity Pressure Visibility Wind Dir Wind Speed Gust Speed Precip Events Conditions
12:54 AM 62.1 °F 45.0 °F 53% 30.12 in 10.0 mi East 4.6 mph - N/A   Clear
1:54 AM 57.0 °F 46.0 °F 67% 30.14 in 10.0 mi Calm Calm - N/A   Clear
2:54 AM 55.9 °F 46.9 °F 72% 30.12 in 10.0 mi ENE 3.5 mph - N/A   Clear
3:54 AM 54.0 °F 46.9 °F 77% 30.13 in 10.0 mi Calm Calm - N/A   Clear
4:54 AM 54.0 °F 46.9 °F 77% 30.13 in 10.0 mi NE 3.5 mph - N/A   Clear
5:54 AM 53.1 °F 46.0 °F 77% 30.14 in 10.0 mi ENE 4.6 mph - N/A   Clear
6:54 AM 57.9 °F 48.9 °F 72% 30.16 in 10.0 mi East 4.6 mph - N/A   Clear
7:54 AM 62.1 °F 48.9 °F 62% 30.16 in 10.0 mi ESE 8.1 mph - N/A   Clear
8:54 AM 66.0 °F 50.0 °F 56% 30.14 in 10.0 mi SE 12.7 mph - N/A   Clear
9:54 AM 69.1 °F 50.0 °F 51% 30.14 in 10.0 mi SE 10.4 mph - N/A   Clear
10:54 AM 72.0 °F 51.1 °F 48% 30.13 in 10.0 mi ESE 12.7 mph - N/A   Clear
11:54 AM 73.0 °F 50.0 °F 44% 30.13 in 10.0 mi ESE 10.4 mph - N/A   Clear
12:54 PM 73.9 °F 48.9 °F 41% 30.11 in 10.0 mi East 9.2 mph - N/A   Clear
1:54 PM 75.9 °F 48.9 °F 38% 30.09 in 10.0 mi East 10.4 mph - N/A   Clear
2:54 PM 75.0 °F 50.0 °F 41% 30.08 in 10.0 mi ESE 8.1 mph - N/A   Clear
3:54 PM 77.0 °F 48.0 °F 36% 30.06 in 10.0 mi Variable 4.6 mph - N/A   Clear
4:54 PM 78.1 °F 50.0 °F 37% 30.06 in 10.0 mi SE 11.5 mph - N/A   Clear
5:54 PM 77.0 °F 48.9 °F 37% 30.05 in 10.0 mi SE 10.4 mph - N/A   Clear
6:54 PM 75.9 °F 50.0 °F 40% 30.03 in 10.0 mi ESE 10.4 mph - N/A   Clear
7:54 PM 73.9 °F 51.1 °F 45% 30.04 in 10.0 mi SE 5.8 mph - N/A   Clear
8:54 PM 66.9 °F 53.1 °F 61% 30.03 in 10.0 mi SE 4.6 mph - N/A   Clear
9:54 PM 64.9 °F 52.0 °F 63% 30.02 in 10.0 mi SE 5.8 mph - N/A   Clear
10:54 PM 64.0 °F 51.1 °F 63% 30.02 in 10.0 mi SSE 5.8 mph - N/A   Clear
11:54 PM 62.1 °F 50.0 °F 65% 30.03 in 10.0 mi SE 5.8 mph - N/A   Clear